Lid_Strength_Index
4 5 4 5 5 5 4 5 6 8 8 6 6 7 7 8 8 8 8 8 8 7
5 4 4 4 4 4 4 4 7 8 7 6 6 6 7 8 8 8 8 8 7 7
5 5 6 6 5 5 5 6 8 7 6 6 6 7 8 8 8 8 8 7 6 6
6 6 6 6 6 6 7 8 6 6 6 6 7 7 8 8 8 8 7 6 6 4
6 6 6 6 6 6 8 7 6 6 6 6 6 7 7 7 7 7 6 6 4 4
5 5 5 5 6 6 7 6 5 5 6 6 7 7 7 7 8 6 6 4 4 4
6 5 5 6 6 6 5 5 5 6 6 6 7 6 7 7 6 6 5 4 4 4
5 5 6 5 5 5 5 5 5 5 5 6 6 6 7 8 6 6 4 4 4 5
5 5 4 5 4 5 5 5 5 6 6 6 6 6 6 4 5 5 6 7 7 7
4 4 3 3 4 5 6 7 7 6 6 5 6 5 5 5 6 7 9 8 9 9
4 3 2 3 5 6 8 8 6 6 7 6 5 6 7 7 9 10 10 10 10 11
2 3 3 4 6 7 7 8 7 8 8 8 9 8 8 9 10 10 10 10 10 10
2 3 5 6 7 7 8 7 8 9 9 8 10 8 8 9 10 10 11 11 11 11
5 5 6 7 8 7 8 8 9 10 10 10 9 10 8 8 9 11 11 12 11 11